[[{"header":{"parameterUnit":"m.s-1","parameterCategory":1,"la1":30.2991,"la2":30.254,"lo1":-89.0895,"lo2":-89.0444,"dy":0.0017,"dx":0.0017,"nx":28,"ny":28,"refTime":"2024-05-18T09:00:00:Z","depth":0,"parameterNumber":2,"parameterNumberName":"U-component_of_WINDS"},"data":[0,0,0,0,0,0,0,0,0,0,0,0,0,0,0,0,0,0,0,0,0,0,0,0,0,0,0,0,0,0,0,0,0,0,0,0,0,0,0,0,0,0,0,0,0,0,0,0,0,0,0,0,0,0,0,0,0,0,2.4095,2.4097,0,2.4235,2.4236,2.4238,2.4264,2.4263,2.4262,2.4261,2.4403,2.4407,2.4412,0,0,0,0,0,0,0,0,0,0,0,0,0,2.3847,2.3851,2.4095,2.4097,2.4098,2.4235,2.4237,2.4238,2.4264,2.4263,2.4261,2.426,2.4401,2.4407,2.4412,0,0,0,0,0,0,0,0,0,0,0,0,0,2.3967,2.3853,2.4095,2.4128,2.4132,2.4234,2.4237,2.4239,2.4265,2.4263,2.4261,2.426,2.4399,2.4406,2.4413,2.4492,0,0,2.4435,2.4439,0,0,0,0,0,0,0,0,2.3961,2.3977,2.4121,2.4126,2.4131,2.423,2.4201,2.4324,2.4265,2.4214,2.4261,2.4259,2.4347,2.4358,2.4388,2.4498,2.4505,2.4436,2.444,2.4444,2.4446,0,0,0,0,0,0,0,2.3952,2.3971,2.415,2.4123,2.4129,2.4135,2.415,2.4224,2.4288,2.4218,2.4221,2.4237,2.4349,2.4381,2.4391,2.4507,2.4436,2.4442,2.4447,2.445,2.4685,2.4687,0,0,0,0,0,0,2.3938,2.3964,2.4146,2.4154,2.404,2.414,2.4157,2.42,2.4287,2.4299,2.4238,2.4238,2.4369,2.4383,2.4396,2.4492,2.4443,2.445,2.4454,2.4684,2.4686,2.4688,0,0,0,0,0,0,2.3933,2.3954,2.414,2.406,2.4084,2.4146,2.4194,2.4204,2.4236,2.4302,2.4314,2.426,2.4369,2.4386,2.4467,2.4497,2.4454,2.446,2.4681,2.4684,2.4687,2.4685,0,0,0,0,0,0,2.3926,2.3952,2.3984,2.406,2.4088,2.421,2.4196,2.4208,2.4248,2.4249,2.4325,2.4336,2.4369,2.4456,2.4474,2.4506,2.4466,2.4679,2.4683,2.4686,2.4682,2.4687,2.4691,0,0,0,0,0,2.3917,2.3978,2.3985,2.4007,2.4129,2.4211,2.4227,2.4263,2.4251,2.4282,2.4324,2.4334,2.4491,2.4464,2.4485,2.452,2.4677,2.4682,2.4686,2.468,2.4686,2.4691,0,0,0,0,0,0,2.3903,2.3988,2.3998,2.4085,2.4141,2.4215,2.4256,2.4269,2.4329,2.4327,2.4369,2.4386,2.4464,2.45,2.4469,2.4599,2.4583,2.4592,2.4572,2.4578,2.4582,2.4571,2.4472,0,0,0,0,0,2.391,2.3971,2.4042,2.4113,2.414,2.4193,2.4231,2.4254,2.4313,2.4336,2.4385,2.4441,2.4503,2.4543,2.4604,2.4688,2.4704,2.4722,2.4726,2.4729,2.4736,2.478,2.4788,2.4702,2.4702,2.4702,0,0,2.3926,2.398,2.4016,2.4111,2.4157,2.4217,2.4213,2.4278,2.4323,2.4346,2.4425,2.4462,2.4528,2.461,2.4648,2.4642,2.4763,2.4735,2.4737,2.4742,2.4786,2.4794,2.4801,2.4705,2.4705,2.4704,0,0,2.3984,2.4033,2.4095,2.4141,2.421,2.4245,2.4259,2.4332,2.4358,2.4438,2.4455,2.4509,2.4616,2.4661,2.4697,2.4771,2.4781,2.479,2.4812,2.4855,2.4862,2.4868,2.4892,2.49,2.4796,2.4796,2.4796,0,2.3995,2.4088,2.4126,2.4189,2.423,2.4254,2.4316,2.4358,2.4444,2.447,2.4463,2.4595,2.4641,2.4733,2.475,2.478,2.4797,2.478,2.4858,2.4865,2.4871,2.4894,2.4903,2.4797,2.4797,2.4796,2.4796,0,2.4095,2.4159,2.4201,2.4282,2.4328,2.4391,2.4437,2.4478,2.4497,2.4532,2.4611,2.4667,2.4738,2.4762,2.4782,2.4856,2.485,2.485,2.4835,2.4879,2.4901,2.4911,2.4797,2.4797,2.4797,2.4797,0,0,2.4149,2.425,2.4264,2.43,2.4377,2.4427,2.449,2.456,2.4593,2.4651,2.4703,2.4792,2.4791,2.4833,2.4857,2.4895,2.4946,2.489,2.4892,2.4897,2.5029,2.5027,2.5037,2.4954,2.4956,2.4958,2.5023,0,2.4215,2.4329,2.4364,2.4459,2.4516,2.4539,2.4594,2.4646,2.468,2.4733,2.4771,2.4832,2.4828,2.4853,2.4891,2.4932,2.4973,2.4928,2.5002,2.5004,2.4983,2.5049,2.5048,2.5107,2.5032,2.5034,2.5035,0,2.4308,2.4366,2.4466,2.4533,2.4559,2.4608,2.4673,2.4724,2.4783,2.4805,2.4851,2.4872,2.4936,2.4919,2.5007,2.4976,2.5008,2.5032,2.5035,2.5042,2.5021,2.5056,2.5127,2.5135,2.5049,2.5048,2.5047,0,2.4334,2.4438,2.451,2.4541,2.4622,2.4655,2.469,2.4748,2.4787,2.4844,2.4869,2.4933,2.4967,2.5016,2.5052,2.5037,2.5137,2.5123,2.5155,2.5154,2.5174,2.5172,2.525,2.5198,2.5198,2.5198,2.5198,0,2.4403,2.4462,2.4523,2.4567,2.4634,2.4673,2.4738,2.4774,2.4825,2.4875,2.49,2.4946,2.4993,2.5046,2.5075,2.5143,2.5159,2.5177,2.5184,2.5174,2.5171,2.5194,2.519,2.52,2.52,2.5199,2.5199,0,2.4443,2.4486,2.4566,2.4636,2.4655,2.4701,2.476,2.4803,2.4838,2.4901,2.4918,2.4972,2.5035,2.5077,2.5158,2.5178,2.525,2.5257,2.523,2.5233,2.5262,2.5258,2.5356,2.537,2.531,2.5311,2.5311,0,2.4483,2.4529,2.4604,2.4639,2.4675,2.4732,2.4772,2.4812,2.4852,2.4921,2.4955,2.502,2.5073,2.5173,2.5218,2.528,2.5287,2.5317,2.5296,2.5284,2.5285,2.5281,2.5284,2.532,2.532,2.532,2.5321,0,2.4549,2.4567,2.4624,2.4687,2.4733,2.4785,2.4836,2.4864,2.4913,2.4956,2.5021,2.5062,2.5144,2.5207,2.5272,2.5307,2.5321,2.5327,2.5337,2.5327,2.5308,2.5316,2.5237,2.5324,2.5324,2.5324,2.5323,2.5323,2.4589,2.463,2.4688,2.4749,2.4792,2.4839,2.4883,2.4922,2.4977,2.5046,2.5067,2.5133,2.5189,2.5278,2.5314,2.5366,2.5363,2.5378,2.5382,2.5385,2.5384,2.5301,2.5378,2.5378,2.5378,2.5378,2.5378,0,2.4654,2.4692,2.4748,2.4819,2.4866,2.4876,2.4933,2.4972,2.503,2.5082,2.5134,2.5206,2.5267,2.5317,2.538,2.5411,2.5419,2.5426,2.5423,2.5431,2.5384,2.5368,2.5419,2.5419,2.5418,2.5418,2.5418,2.5418,2.4693,2.4762,2.4787,2.4877,2.4915,2.4981,2.5012,2.5055,2.5096,2.5176,2.5227,2.5259,2.5309,2.5375,2.5431,2.5444,2.5464,2.547,2.5484,2.5439,2.5434,2.543,2.5415,2.5474,2.5474,2.5526,2.5526,2.5527]},{"header":{"parameterUnit":"m.s-1","parameterCategory":1,"la1":30.2991,"la2":30.254,"lo1":-89.0895,"lo2":-89.0444,"dy":0.0017,"dx":0.0017,"nx":28,"ny":28,"refTime":"2024-05-18T09:00:00:Z","depth":0,"parameterNumber":3,"parameterNumberName":"V-component_of_WINDS"},"data":[0,0,0,0,0,0,0,0,0,0,0,0,0,0,0,0,0,0,0,0,0,0,0,0,0,0,0,0,0,0,0,0,0,0,0,0,0,0,0,0,0,0,0,0,0,0,0,0,0,0,0,0,0,0,0,0,0,0,3.0941,3.0941,0,3.0924,3.0923,3.0923,3.0862,3.0861,3.0859,3.0858,3.0839,3.084,3.0841,0,0,0,0,0,0,0,0,0,0,0,0,0,3.0919,3.092,3.0941,3.0941,3.0941,3.0924,3.0923,3.0923,3.0862,3.0861,3.0859,3.0857,3.0839,3.084,3.0841,0,0,0,0,0,0,0,0,0,0,0,0,0,3.0918,3.092,3.0941,3.0908,3.0905,3.0924,3.0923,3.0923,3.0863,3.0861,3.0858,3.0857,3.0839,3.084,3.0841,3.089,0,0,3.0844,3.0845,0,0,0,0,0,0,0,0,3.0918,3.0919,3.0913,3.0911,3.0907,3.0893,3.0909,3.0912,3.0863,3.0879,3.0858,3.0856,3.0859,3.0858,3.0859,3.0889,3.0888,3.0845,3.0845,3.0846,3.0846,0,0,0,0,0,0,0,3.0918,3.0919,3.0934,3.0913,3.091,3.0893,3.0891,3.0909,3.0881,3.0877,3.0873,3.0872,3.0857,3.0858,3.0858,3.0888,3.0845,3.0846,3.0846,3.0847,3.0953,3.0955,0,0,0,0,0,0,3.0923,3.092,3.0935,3.0934,3.0908,3.0896,3.0893,3.09,3.088,3.0875,3.0873,3.0869,3.0857,3.0857,3.0857,3.0912,3.0846,3.0847,3.0848,3.0951,3.0953,3.0956,0,0,0,0,0,0,3.0923,3.0925,3.0935,3.0925,3.0925,3.0898,3.0906,3.09,3.0902,3.0877,3.0872,3.0881,3.0856,3.0856,3.0881,3.091,3.0847,3.0848,3.0948,3.0952,3.0955,3.1022,0,0,0,0,0,0,3.0923,3.0925,3.0945,3.0926,3.0926,3.0961,3.0908,3.0901,3.0904,3.0898,3.0883,3.0878,3.0854,3.088,3.0883,3.0911,3.0849,3.0946,3.095,3.0954,3.1017,3.1027,3.1035,0,0,0,0,0,3.0922,3.0965,3.0946,3.0948,3.095,3.0963,3.0963,3.0935,3.0907,3.0925,3.0909,3.0878,3.0906,3.0883,3.0886,3.0914,3.0944,3.0949,3.0953,3.1013,3.1025,3.1035,0,0,0,0,0,0,3.0988,3.0962,3.0941,3.0979,3.0973,3.0952,3.0975,3.0949,3.0951,3.0945,3.091,3.0907,3.0937,3.0928,3.0903,3.0959,3.092,3.0925,3.0964,3.0975,3.0985,3.0986,3.085,0,0,0,0,0,3.1006,3.102,3.0996,3.1032,3.103,3.1003,3.1008,3.0986,3.0979,3.0977,3.0962,3.0956,3.0963,3.0969,3.0974,3.1015,3.1009,3.1035,3.1045,3.1052,3.1058,3.1076,3.1087,3.0971,3.0971,3.0971,0,0,3.1046,3.1033,3.1044,3.1044,3.1038,3.1051,3.1002,3.1019,3.1028,3.0979,3.1002,3.0991,3.0982,3.1015,3.1028,3.1008,3.1088,3.1058,3.1065,3.1066,3.1082,3.1093,3.1103,3.0975,3.0974,3.0973,0,0,3.1124,3.1116,3.1144,3.1138,3.1128,3.1109,3.1116,3.1098,3.1089,3.1112,3.1074,3.1084,3.1098,3.1092,3.1091,3.1164,3.1135,3.1166,3.1215,3.1234,3.1243,3.1251,3.1276,3.1285,3.1171,3.1172,3.1172,0,3.1174,3.1193,3.1162,3.1181,3.1181,3.1137,3.1164,3.1159,3.1152,3.1153,3.113,3.1144,3.1135,3.1165,3.1182,3.1183,3.1189,3.1168,3.1244,3.1252,3.1259,3.1282,3.1292,3.1175,3.1175,3.1175,3.1174,0,3.1254,3.1268,3.1292,3.1285,3.1288,3.1311,3.1282,3.1289,3.1266,3.125,3.1272,3.1258,3.1259,3.1265,3.1243,3.1291,3.1278,3.1251,3.121,3.1274,3.1295,3.1304,3.1181,3.118,3.1178,3.1177,0,0,3.1376,3.1349,3.1358,3.1354,3.1338,3.1348,3.1368,3.1368,3.1374,3.137,3.1385,3.1396,3.1369,3.1367,3.1345,3.1361,3.1418,3.1331,3.133,3.1347,3.1468,3.1489,3.15,3.1398,3.14,3.1401,3.1468,0,3.1449,3.1483,3.1453,3.1492,3.1503,3.1459,3.1476,3.1468,3.1452,3.1459,3.144,3.1449,3.1413,3.1412,3.1426,3.1408,3.1442,3.1403,3.1411,3.1412,3.1415,3.1511,3.1534,3.1599,3.1477,3.1478,3.1479,0,3.1541,3.1539,3.1579,3.1558,3.1562,3.1578,3.1575,3.1582,3.1571,3.1558,3.1555,3.1526,3.1543,3.1503,3.1525,3.1499,3.15,3.1491,3.1493,3.1493,3.145,3.1514,3.1619,3.1628,3.1492,3.1491,3.149,0,3.1624,3.1632,3.1656,3.1654,3.1631,3.1643,3.1633,3.162,3.1621,3.1618,3.1618,3.1618,3.1617,3.1616,3.1588,3.1562,3.1612,3.157,3.1601,3.1602,3.1614,3.1614,3.1721,3.1615,3.1615,3.1615,3.1615,0,3.171,3.1735,3.1693,3.1708,3.1734,3.17,3.1727,3.1713,3.1701,3.1711,3.1673,3.1683,3.1645,3.1651,3.1628,3.1649,3.1649,3.1638,3.1632,3.1642,3.1643,3.1642,3.1637,3.1618,3.1617,3.1617,3.1616,0,3.1808,3.1781,3.1804,3.1779,3.1774,3.1794,3.1773,3.1785,3.1765,3.1779,3.178,3.175,3.1754,3.1725,3.1725,3.171,3.1741,3.1727,3.1745,3.1741,3.1773,3.177,3.1883,3.1895,3.1782,3.1784,3.1784,0,3.1865,3.1883,3.186,3.1864,3.1857,3.1864,3.1865,3.183,3.1832,3.1819,3.1833,3.1834,3.1833,3.1843,3.182,3.1819,3.1804,3.1844,3.1804,3.1813,3.1804,3.1804,3.1805,3.1853,3.1854,3.1855,3.1856,0,3.1967,3.1952,3.1955,3.1953,3.1954,3.1951,3.1945,3.195,3.1912,3.1916,3.192,3.192,3.1918,3.192,3.1914,3.1903,3.1873,3.1869,3.1875,3.1886,3.1895,3.189,3.1767,3.1866,3.1865,3.1865,3.1864,3.1864,3.2046,3.206,3.2045,3.2049,3.204,3.2034,3.2044,3.2025,3.2028,3.2024,3.2003,3.2011,3.1996,3.1985,3.1977,3.1981,3.1962,3.1973,3.1975,3.1978,3.1984,3.1894,3.198,3.198,3.1979,3.1979,3.1979,0,3.2146,3.2134,3.2138,3.213,3.2132,3.2103,3.2094,3.2097,3.2105,3.2094,3.2093,3.2097,3.2097,3.2074,3.2071,3.2079,3.2065,3.208,3.2079,3.2077,3.2001,3.1995,3.2091,3.2091,3.2091,3.2091,3.2091,3.2091,3.2199,3.222,3.2203,3.2218,3.2205,3.2212,3.2209,3.2203,3.2194,3.22,3.22,3.2184,3.2168,3.2163,3.2162,3.2155,3.2155,3.2174,3.2163,3.2093,3.2082,3.2072,3.2066,3.2175,3.2175,3.2237,3.2238,3.2238]}]]